• Join FlightAware (Why Join?)
  • Login
  • US Flag 
10:29PM EDT


 

Airport Tracker/Info


-or-


 

Live Flight TrackerFlight Track Log ✈ AAY956 ✈ 07-Mar-2014 ✈ KPGD - KIAG

Flight Track Log - Related Links

Times and Time Zones

All times are in EST time to prevent confusion due to time zone crossing. See the AAY956 flight status page for this flight to view local times or setup timezone preferences in your user account.

Time Position Orientation Groundspeed Altitude Reporting Facility
EST Latitude Longitude Course Direction KTS MPH feet Rate Location/Type
03:32PM 27.0636 -81.9272 24° Northeast 231 266 4,000  Level Miami Center
03:33PM 27.1369 -81.9186 North 249 287 5,100 1,800 Climbing Miami Center
03:34PM 27.2108 -81.8939 17° North 261 300 7,600 2,700 Climbing Miami Center
03:35PM 27.2906 -81.8786 10° North 273 314 10,600 2,040 Climbing Miami Center
03:36PM 27.5388 -81.7306 24° Northeast  Level FlightAware Approximate
03:36PM 27.3750 -81.8542 14° North 290 334 11,700  Level Miami Center
03:37PM 27.4781 -81.8261 14° North 331 381 13,600 1,920 Climbing Miami Center
03:38PM 27.5800 -81.7742 24° Northeast 383 441 15,900 2,160 Climbing Miami Center
03:39PM 27.7114 -81.7189 20° North 406 467 18,400 1,740 Climbing Miami Center
03:40PM 27.8111 -81.6692 24° Northeast 425 489 19,800 1,440 Climbing Miami Center
03:41PM 27.9511 -81.6047 22° Northeast 435 501 21,600 1,500 Climbing Miami Center
03:42PM 28.0717 -81.5508 22° Northeast 447 514 22,900 1,380 Climbing Miami Center
03:43PM 28.1711 -81.5081 21° North 459 528 24,400 1,680 Climbing Miami Center
03:44PM 28.3131 -81.4408 23° Northeast 459 528 26,300 1,560 Climbing Miami Center
03:45PM 28.4422 -81.3847 21° North 464 534 27,600 1,440 Climbing Miami Center
03:46PM 28.5625 -81.3422 17° North 469 540 29,200 1,260 Climbing Miami Center
03:47PM 28.6414 -81.3503 355° North 430 495 29,700 960 Climbing Jacksonville Center
03:48PM 28.7647 -81.3556 358° North 424 488 30,800 780 Climbing Jacksonville Center
03:49PM 28.8881 -81.3703 354° North 424 488 31,300 600 Climbing Jacksonville Center
03:50PM 29.0133 -81.3800 356° North 434 499 32,000 600 Climbing Jacksonville Center
03:51PM 29.1408 -81.3925 355° North 450 518 32,600 480 Climbing Jacksonville Center
03:52PM 29.2622 -81.4167 350° North 450 518 33,000 180 Climbing Jacksonville Center
03:53PM 29.3836 -81.4578 344° North 445 512 33,000  Level Jacksonville Center
03:54PM 29.5072 -81.4847 349° North 445 512 33,000  Level Jacksonville Center
03:55PM 29.6306 -81.5117 349° North 451 519 33,000  Level Jacksonville Center
03:56PM 29.7561 -81.5289 353° North 451 519 33,000  Level Jacksonville Center
03:57PM 29.8775 -81.5486 352° North 451 519 33,000  Level Jacksonville Center
03:58PM 29.9986 -81.5711 351° North 445 512 33,000  Level Jacksonville Center
03:59PM 30.1219 -81.5861 354° North 445 512 33,000  Level Jacksonville Center
04:00PM 30.2414 -81.6086 351° North 445 512 33,000  Level Jacksonville Center
04:01PM 30.3603 -81.6214 355° North 440 506 33,000  Level Jacksonville Center
04:02PM 30.4775 -81.6439 351° North 435 501 33,000  Level Jacksonville Center
04:03PM 30.5989 -81.6594 354° North 428 493 33,000  Level Jacksonville Center
04:04PM 30.7158 -81.6819 351° North 428 493 33,000  Level Jacksonville Center
04:05PM 30.8372 -81.6975 354° North 428 493 33,000  Level Jacksonville Center
04:06PM 30.9522 -81.7178 351° North 428 493 33,000  Level Jacksonville Center
04:07PM 31.0692 -81.7356 353° North 422 486 33,000  Level Jacksonville Center
04:08PM 31.1781 -81.7561 351° North 416 479 33,000  Level Jacksonville Center
04:09PM 31.2931 -81.7767 351° North 416 479 33,000  Level Jacksonville Center
04:10PM 31.4081 -81.7900 354° North 405 466 33,000  Level Jacksonville Center
04:11PM 31.6286 -81.8219 353° North 437 503 33,000  Level Atlanta Center
04:12PM 31.7417 -81.8458 350° North 424 488 33,000  Level Atlanta Center
04:13PM 31.8608 -81.8603 354° North 424 488 33,000  Level Atlanta Center
04:14PM 31.9761 -81.8819 351° North 424 488 33,000  Level Atlanta Center
04:15PM 32.0953 -81.8961 354° North 424 488 33,000  Level Atlanta Center
04:16PM 32.2128 -81.9228 349° North 424 488 33,000  Level Atlanta Center
04:17PM 32.3403 -81.9369 355° North 424 488 33,000  Level Atlanta Center
04:18PM 32.4575 -81.9589 351° North 424 488 33,000  Level Atlanta Center
04:19PM 32.5767 -81.9708 355° North 429 494 33,000  Level Atlanta Center
04:20PM 32.6919 -81.9953 350° North 423 487 33,000  Level Atlanta Center
04:21PM 32.8108 -81.9925 North 423 487 33,000  Level Atlanta Center
04:22PM 32.9319 -81.9919 360° North 428 493 33,000  Level Atlanta Center
04:23PM 33.0506 -81.9842 North 428 493 33,000  Level Atlanta Center
04:24PM 33.1697 -81.9814 North 423 487 33,000  Level Atlanta Center
04:25PM 33.2886 -81.9811 360° North 423 487 33,000  Level Atlanta Center
04:26PM 33.4053 -81.9733 North 423 487 33,000  Level Atlanta Center
04:27PM 33.5158 -81.9708 North 423 487 33,000  Level Atlanta Center
04:28PM 33.6369 -81.9678 North 423 487 33,000  Level Atlanta Center
04:29PM 33.7539 -81.9650 North 423 487 33,000  Level Atlanta Center
04:30PM 33.8706 -81.9622 North 417 480 33,000  Level Atlanta Center
04:31PM 33.9894 -81.9594 North 417 480 33,000  Level Atlanta Center
04:32PM 34.1064 -81.9539 North 417 480 33,000  Level Atlanta Center
04:33PM 34.2253 -81.9511 North 422 486 33,000  Level Atlanta Center
04:34PM 34.3397 -81.9331 North 422 486 33,000  Level Atlanta Center
04:35PM 34.4561 -81.9100 North 422 486 33,000  Level Atlanta Center
04:36PM 34.5664 -81.8819 12° North 422 486 33,000  Level Atlanta Center
04:37PM 34.6931 -81.8536 10° North 416 479 33,000  Level Atlanta Center
04:38PM 34.8075 -81.8328 North 416 479 33,000  Level Atlanta Center
04:39PM 34.9197 -81.8019 13° North 411 473 33,000  Level Atlanta Center
04:40PM 35.0297 -81.7686 14° North 411 473 33,000  Level Atlanta Center
04:41PM 35.1458 -81.7425 10° North 411 473 33,000  Level Atlanta Center
04:42PM 35.2603 -81.7139 12° North 411 473 33,000  Level Atlanta Center
04:43PM 35.3744 -81.6878 11° North 411 473 33,000  Level Atlanta Center
04:44PM 35.4906 -81.6539 13° North 411 473 33,000  Level Atlanta Center
04:45PM 35.6069 -81.6300 North 411 473 33,000  Level Atlanta Center
04:46PM 35.7211 -81.5961 14° North 416 479 33,000  Level Atlanta Center
04:47PM 35.8250 -81.5725 10° North 416 479 33,000  Level Atlanta Center
04:48PM 35.9411 -81.5433 11° North 411 473 33,000  Level Atlanta Center
04:49PM 36.0531 -81.5114 13° North 411 473 33,000  Level Atlanta Center
04:50PM 36.1694 -81.4872 10° North 411 473 33,000  Level Atlanta Center
04:51PM 36.2856 -81.4500 14° North 411 473 33,000  Level Atlanta Center
04:52PM 36.3994 -81.4206 12° North 411 473 33,000  Level Atlanta Center
04:55PM 36.6853 -81.3442 12° North 423 487 33,000  Level Indianapolis Center
04:56PM 36.7983 -81.3214 North 422 486 33,000  Level Indianapolis Center
04:57PM 36.9106 -81.2856 14° North 424 488 33,000  Level Indianapolis Center
04:58PM 37.0378 -81.2569 10° North 425 489 33,000  Level Indianapolis Center
04:59PM 37.1525 -81.2236 13° North 425 489 33,000  Level Indianapolis Center
05:00PM 37.2869 -81.1928 10° North 425 489 33,000  Level Indianapolis Center
05:01PM 37.3847 -81.1617 14° North 424 488 33,000  Level Indianapolis Center
05:02PM 37.5211 -81.1325 10° North 423 487 33,000  Level Indianapolis Center
05:03PM 37.6344 -81.0953 15° North 426 490 33,000  Level Indianapolis Center
05:04PM 37.7483 -81.0714 North 426 490 33,000  Level Indianapolis Center
05:05PM 37.8597 -81.0358 14° North 423 487 33,000  Level Indianapolis Center
05:06PM 37.9969 -81.0033 11° North 423 487 33,000  Level Indianapolis Center
05:07PM 38.1103 -80.9675 14° North 422 486 33,000  Level Indianapolis Center
05:08PM 38.2217 -80.9439 North 413 475 33,000  Level Indianapolis Center
05:09PM 38.3300 -80.9081 15° North 408 470 33,000  Level Indianapolis Center
05:10PM 38.4392 -80.8847 10° North 404 465 33,000  Level Indianapolis Center
05:11PM 38.5681 -80.8439 14° North 403 464 33,000  Level Indianapolis Center
05:12PM 38.6758 -80.8178 11° North 400 460 33,000  Level Indianapolis Center
05:14PM 38.7817 -80.7864 13° North 398 458 33,000  Level Indianapolis Center
05:15PM 38.8911 -80.7597 11° North 398 458 33,000  Level Indianapolis Center
05:16PM 38.9983 -80.7278 13° North 398 458 33,000  Level Indianapolis Center
05:17PM 39.1283 -80.6936 12° North 398 458 33,000  Level Indianapolis Center
05:18PM 39.2356 -80.6611 13° North 398 458 33,000  Level Indianapolis Center
05:19PM 39.3442 -80.6333 11° North 398 458 33,000  Level Indianapolis Center
05:20PM 39.4522 -80.6014 13° North 398 458 33,000  Level Indianapolis Center
05:21PM 39.5603 -80.5750 11° North 399 459 33,000  Level Indianapolis Center
05:22PM 39.6678 -80.5397 14° North 399 459 33,000 -300 Level Indianapolis Center
05:23PM 39.7983 -80.5042 12° North 399 459 32,500 -1,020 Descending Indianapolis Center
05:24PM 39.9069 -80.4753 12° North 399 459 31,000 -720 Descending Indianapolis Center
05:25PM 40.0186 -80.4331 16° North 401 461 31,000  Level Indianapolis Center
05:26PM 40.1256 -80.3803 21° North 403 464 31,000  Level Indianapolis Center
05:27PM 40.2342 -80.3336 18° North 405 466 31,000  Level Indianapolis Center
05:28PM 40.3408 -80.2822 20° North 405 466 31,000  Level Indianapolis Center
05:29PM 40.4481 -80.2339 19° North 405 466 31,000  Level Indianapolis Center
05:30PM 40.6086 -80.1617 19° North 406 467 31,000 -60 Level Cleveland Center
05:31PM 40.7144 -80.1056 22° Northeast 408 470 30,900 -1,020 Descending Cleveland Center
05:32PM 40.8214 -80.0642 16° North 407 468 29,000 -1,800 Descending Cleveland Center
05:34PM 40.9414 -80.0006 22° Northeast 416 479 27,200 -1,680 Descending Cleveland Center
05:35PM 41.0506 -79.9539 18° North 414 476 25,600 -1,500 Descending Cleveland Center
05:36PM 41.1700 -79.8914 21° North 424 488 24,100 -780 Descending Cleveland Center
05:37PM 41.2792 -79.8456 18° North 417 480 24,000 -60 Descending Cleveland Center
05:38PM 41.3864 -79.7883 22° Northeast 417 480 24,000  Level Cleveland Center
05:39PM 41.4961 -79.7417 18° North 416 479 24,000  Level Cleveland Center
05:40PM 41.6053 -79.6858 21° North 418 481 24,000 -120 Level Cleveland Center
05:41PM 41.7286 -79.6300 19° North 419 482 23,800 -660 Descending Cleveland Center
05:42PM 41.8347 -79.5736 22° Northeast 386 444 22,700 -1,440 Descending Cleveland Center
05:43PM 41.9300 -79.5325 18° North 367 422 20,900 -1,680 Descending Cleveland Center
05:44PM 42.0256 -79.4806 22° Northeast 371 427 19,300 -1,560 Descending Cleveland Center
05:45PM 42.1200 -79.4397 18° North 361 415 17,700 -1,560 Descending Cleveland Center
05:46PM 42.2131 -79.3908 21° North 361 415 16,100 -1,740 Descending Cleveland Center
05:47PM 42.3211 -79.3408 19° North 344 396 14,200 -1,740 Descending Cleveland Center
05:48PM 42.4075 -79.2944 22° Northeast 337 388 12,600 -1,500 Descending Cleveland Center
05:49PM 42.4817 -79.2503 24° Northeast 328 377 11,200 -1,500 Descending Cleveland Center
05:50PM 42.5742 -79.1875 27° Northeast 312 359 9,600 -1,620 Descending Cleveland Center
05:51PM 42.6486 -79.1408 25° Northeast 290 334 7,900 -1,320 Descending Cleveland Center
05:52PM 42.7228 -79.0897 27° Northeast 288 331 6,900 -1,020 Descending Cleveland Center
05:53PM 42.7978 -79.0447 24° Northeast 287 330 5,800 -960 Descending Cleveland Center
05:54PM 42.8706 -78.9956 26° Northeast 284 327 4,900 -960 Descending Cleveland Center
05:55PM 42.9372 -78.9533 25° Northeast 279 321 3,900 -1,020 Descending Cleveland Center
05:56PM 43.0094 -78.9042 26° Northeast 279 321 2,900 -1,020 Descending Cleveland Center
05:57PM 43.0667 -78.8500 35° Northeast 254 292 2,000 -600 Descending Buffalo TRACON
05:58PM 43.1167 -78.8500 360° North 177 204 1,800 -540 Descending Buffalo TRACON
05:59PM 43.1167 -78.9000 270° West 121 139 900 -840 Descending Buffalo TRACON
06:01PM 43.1000 -78.9333 26° Northeast  Level FlightAware Approximate